NOAA 16 DEB, 41526

Orbit data source: Space-Track

NOAA 16 DEB, 41526 is space debris in SSO originally from a launch on Thu, 21 Sep 2000 UTC launched from the Air Force Western Test Range (AFWTR). Debris objects in space refer to the collection of defunct objects orbiting the Earth. Examples of debris include non-operational satellites, rocket bodies, and fragments generated from explosions, collisions, or faulty payload assembly.

Loading next visibility...
Identifier
41526, 2000-055NA
Orbit
SSO
Country
Flag of USUS
Related business
Manufacturer
Unknown
Mission
Spacecraft
Bus & Motor
Unknown
Mass
Unknown
Launch date (UTC)
2000-09-21 (25 years ago)
Launch vehicle
Unknown
Launch site
Air Force Western Test Range (AFWTR)
Object type
Payload
Rocket body
Debris
Shape & HBR
Unknown shape, 0.1 m
Radar Cross Section
Small (<0.1 m²)

Expand to show TLE details & history
Last TLE update: 2 days ago

TLE from 2 days ago
0 NOAA 16 DEB
1 41526U 00055NA  25305.96677686  .00008755  00000-0  24386-2 0  9998
2 41526  99.0074 130.0246 0018869 151.5869 208.6354 14.46483708499748
Epoch: 2025-11-01T23:12Z
TLE epoch observation values (Epoch: 2025-11-01T23:12:09.520Z)
Latitude
-0.00004°
Longitude
100.49567°
Altitude
751.889 km
Speed
7.472 km/s
True Right ascension
08h 40m 05s
True Declination
0° 00' 00"
Sunlit
Object was in daylight at epoch
Visualization orbit readout
Latitude
Unknown
Longitude
Unknown
Altitude
Unknown
Speed
Unknown
Apparent Right ascension
Unknown
Apparent Declination
Unknown
Sunlit
N/A
Visualization observer readout
Local Sidereal Time
00:24:44
Azimuth
Unknown
Elevation
Unknown
Doppler factor
Unknown
Orbital elements
Apogee altitude
747.715 km
Perigee altitude
720.874 km
Semi-major axis
7,112.431 km
Eccentricity
0.00189
Inclination
99.0074°
RAAN
130.0246°
Arg. of periapsis
151.5869°
True anomaly
208.53199°
Mean anomaly
208.6354°
Eccentric anomaly
208.58367°
Mean motion
3.6184 °/min
Orbital period
99.49 mins
BSTAR
0.0024386
Loading maneuver chart data...
Computing Atmospheric mass density...
Loading historical data...
Loading historical data...
Loading historical data...
Loading historical data...
Loading historical data...
Loading historical data...
Loading historical data...

Documentation

Showing up to 5 results
|